User: anonymous   Login
Location: Unnamed
(48.6007°N, 2.4808°E)
Time: 04:27:11
(UTC+01:00)
Language:

First-Move - Orbit

View from above orbital plane
View from above orbital plane
View from above satellite
View from above satellite

Ground track
Ground track

The orbit data is extracted from the following two-line orbital elements,

1 39439U 13066Z   24056.85326617  .00016263  00000-0  14187-2 0  9990
2 39439  97.7126  21.6678 0051539 150.0739 210.3446 14.95884795554060
Epoch (UTC): 25 February 2024 20:28:42
Eccentricity: 0.0051539
inclination: 97.7126°
perigee height: 544 km
apogee height: 615 km
right ascension of ascending node: 21.6678°
argument of perigee: 150.0739°
revolutions per day: 14.95884795
mean anomaly at epoch: 210.3446°
orbit number at epoch: 55406

The dashed part of the orbit path shows where the satellite is in the earth's shadow,  

DLR